Location: Bavegemberg
(50.9500°N, 3.8833°E)
Time: 19:58:28
(UTC+00:00)

Cosmos 1953 - Pass Details

Date: 23 May 2024
Orbit: 510 x 531 km, 82.5° (Epoch: 14 June)

Event Time Altitude Azimuth Distance (km) Brightness Sun altitude
Rises 00:57:16 0° 350° (N) 2,688 6.9 -16.5°
Reaches altitude 10° 00:59:26 10° 351° (N) 1,790 5.9 -16.4°
Maximum altitude 01:03:23 82° 80° (E) 541 2.2 -16.2°
Enters shadow 01:05:26 27° 165° (SSE) 1,038 3.3 -16.0°
